Time,TemperatureF,DewpointF,PressureIn,WindDirection,WindDirectionDegrees,WindSpeedMPH,WindSpeedGustMPH,Humidity,HourlyPrecipIn,Conditions,Clouds,dailyrainin,SoftwareType,DateUTC
2013-05-25 00:00:00,79.0,87.2,19.23,SSW,202,2.0,2.0,74,0.00,,,0.00,,2013-05-25 04:00:00,
2013-05-25 00:01:00,79.0,87.2,19.23,SSW,202,0.0,2.5,75,0.00,,,0.00,,2013-05-25 04:01:00,
2013-05-25 00:06:00,78.6,87.0,19.23,West,270,2.7,2.9,76,0.00,,,0.00,,2013-05-25 04:06:00,
2013-05-25 00:11:00,78.4,86.9,19.23,WSW,247,0.0,3.1,78,0.00,,,0.00,,2013-05-25 04:11:00,
2013-05-25 00:16:00,78.3,86.9,19.23,SW,225,0.0,0.0,78,0.00,,,0.00,,2013-05-25 04:16:00,
2013-05-25 00:21:00,78.1,86.8,19.23,WSW,247,2.0,2.5,79,0.00,,,0.00,,2013-05-25 04:21:00,
2013-05-25 00:26:00,78.3,86.9,19.24,West,270,0.0,0.0,79,0.00,,,0.00,,2013-05-25 04:26:00,
2013-05-25 00:31:00,78.3,86.8,19.23,NW,315,0.0,0.0,79,0.00,,,0.00,,2013-05-25 04:31:00,
2013-05-25 00:36:00,78.4,87.0,19.23,North,0,0.0,0.0,79,0.00,,,0.00,,2013-05-25 04:36:00,
2013-05-25 00:41:00,78.4,86.8,19.23,North,0,0.0,0.0,79,0.00,,,0.00,,2013-05-25 04:41:00,
2013-05-25 00:46:00,78.4,86.9,19.24,North,0,0.0,0.0,79,0.00,,,0.00,,2013-05-25 04:46:00,
2013-05-25 00:51:00,78.3,86.9,19.24,North,0,0.0,0.0,79,0.00,,,0.00,,2013-05-25 04:51:00,
2013-05-25 00:56:00,78.3,86.9,19.24,North,0,2.0,2.0,80,0.00,,,0.00,,2013-05-25 04:56:00,
2013-05-25 01:01:00,78.1,86.9,19.24,North,0,1.1,1.8,81,0.00,,,0.00,,2013-05-25 05:01:00,
2013-05-25 01:06:00,78.0,86.9,19.24,NNE,22,1.6,2.0,81,0.00,,,0.00,,2013-05-25 05:06:00,
2013-05-25 01:11:00,78.0,86.8,19.25,NNE,22,0.0,0.0,81,0.00,,,0.00,,2013-05-25 05:11:00,
2013-05-25 01:16:00,77.9,86.8,19.25,NW,315,0.0,2.2,82,0.00,,,0.00,,2013-05-25 05:16:00,
2013-05-25 01:21:00,77.9,86.8,19.25,NNW,337,0.0,0.9,81,0.00,,,0.00,,2013-05-25 05:21:00,
2013-05-25 01:26:00,77.8,86.9,19.25,NW,315,0.0,0.0,81,0.00,,,0.00,,2013-05-25 05:26:00,
2013-05-25 01:31:00,77.8,86.9,19.25,NNW,337,0.0,0.0,81,0.00,,,0.00,,2013-05-25 05:31:00,
2013-05-25 01:36:00,77.7,86.8,19.25,NNW,337,0.0,0.0,82,0.00,,,0.00,,2013-05-25 05:36:00,
2013-05-25 01:41:00,77.7,86.8,19.25,NW,315,0.0,0.0,82,0.00,,,0.00,,2013-05-25 05:41:00,
2013-05-25 01:46:00,77.7,86.8,19.25,NW,315,0.0,0.0,82,0.00,,,0.00,,2013-05-25 05:46:00,
2013-05-25 01:51:00,77.7,86.8,19.25,NW,315,0.0,0.0,82,0.00,,,0.00,,2013-05-25 05:51:00,
2013-05-25 01:56:00,77.7,86.9,19.24,NW,315,0.0,0.0,82,0.00,,,0.00,,2013-05-25 05:56:00,
2013-05-25 02:01:00,77.6,86.7,19.24,NNW,337,0.0,0.0,82,0.00,,,0.00,,2013-05-25 06:01:00,
2013-05-25 02:06:00,77.6,86.9,19.24,NNW,337,0.0,0.0,82,0.00,,,0.00,,2013-05-25 06:06:00,
2013-05-25 02:11:00,77.6,86.7,19.25,North,0,0.0,1.1,82,0.00,,,0.00,,2013-05-25 06:11:00,
2013-05-25 02:16:00,77.5,86.8,19.25,North,0,0.0,0.7,83,0.00,,,0.00,,2013-05-25 06:16:00,
2013-05-25 02:21:00,77.5,86.8,19.25,NNE,22,1.1,1.3,83,0.00,,,0.00,,2013-05-25 06:21:00,
2013-05-25 02:26:00,77.4,86.9,19.25,NNE,22,0.0,0.7,83,0.00,,,0.00,,2013-05-25 06:26:00,
2013-05-25 02:31:00,77.3,86.7,19.25,NNE,22,1.3,3.4,84,0.00,,,0.00,,2013-05-25 06:31:00,
2013-05-25 02:36:00,77.2,86.7,19.26,North,0,2.5,4.0,84,0.00,,,0.00,,2013-05-25 06:36:00,
2013-05-25 02:42:00,77.0,86.8,19.26,North,0,3.4,4.0,84,0.00,,,0.00,,2013-05-25 06:42:00,
2013-05-25 02:47:00,76.8,86.8,19.27,NNE,22,4.7,6.5,84,0.00,,,0.00,,2013-05-25 06:47:00,
2013-05-25 02:52:00,76.7,86.7,19.27,NNE,22,4.3,4.7,84,0.00,,,0.00,,2013-05-25 06:52:00,
2013-05-25 02:57:00,76.8,86.7,19.27,NNE,22,4.3,5.1,84,0.00,,,0.00,,2013-05-25 06:57:00,
2013-05-25 03:02:00,76.8,86.6,19.27,NNE,22,3.4,3.8,84,0.00,,,0.00,,2013-05-25 07:02:00,
2013-05-25 03:07:00,76.7,86.7,19.27,NNE,22,3.4,5.4,84,0.00,,,0.00,,2013-05-25 07:07:00,
2013-05-25 03:12:00,76.6,86.6,19.28,NNE,22,5.6,5.6,84,0.00,,,0.00,,2013-05-25 07:12:00,
2013-05-25 03:17:00,76.6,86.4,19.28,NNE,22,4.9,6.5,83,0.00,,,0.00,,2013-05-25 07:17:00,
2013-05-25 03:22:00,76.6,86.6,19.28,NNE,22,2.0,4.3,83,0.00,,,0.00,,2013-05-25 07:22:00,
2013-05-25 03:27:00,76.6,86.6,19.28,NNE,22,2.5,3.6,83,0.00,,,0.00,,2013-05-25 07:27:00,
2013-05-25 03:32:00,76.6,86.6,19.28,North,0,3.4,4.3,82,0.00,,,0.00,,2013-05-25 07:32:00,
2013-05-25 03:37:00,76.6,86.5,19.28,NNW,337,1.6,2.7,82,0.00,,,0.00,,2013-05-25 07:37:00,
2013-05-25 03:42:00,76.5,86.6,19.28,NNW,337,2.2,3.6,82,0.00,,,0.00,,2013-05-25 07:42:00,
2013-05-25 03:47:00,76.4,86.4,19.28,NNW,337,2.0,3.4,82,0.00,,,0.00,,2013-05-25 07:47:00,
2013-05-25 03:52:00,76.4,86.5,19.28,North,0,3.4,3.8,82,0.00,,,0.00,,2013-05-25 07:52:00,
2013-05-25 03:57:00,76.3,86.5,19.28,NE,45,4.0,4.0,82,0.00,,,0.00,,2013-05-25 07:57:00,
2013-05-25 04:02:00,76.3,86.5,19.28,NE,45,3.6,3.6,82,0.00,,,0.00,,2013-05-25 08:02:00,
2013-05-25 04:07:00,76.3,86.5,19.29,NNE,22,3.1,4.3,82,0.00,,,0.00,,2013-05-25 08:07:00,
2013-05-25 04:12:00,76.3,86.5,19.29,NNE,22,2.9,4.7,82,0.00,,,0.00,,2013-05-25 08:12:00,
2013-05-25 04:17:00,76.2,86.5,19.29,NE,45,3.1,4.0,82,0.00,,,0.00,,2013-05-25 08:17:00,
2013-05-25 04:22:00,76.1,86.4,19.29,NE,45,2.2,4.0,82,0.00,,,0.00,,2013-05-25 08:22:00,
2013-05-25 04:27:00,76.2,86.5,19.29,ENE,67,1.3,3.1,82,0.00,,,0.00,,2013-05-25 08:27:00,
2013-05-25 04:32:00,76.2,86.4,19.29,East,90,0.0,0.4,83,0.00,,,0.00,,2013-05-25 08:32:00,
2013-05-25 04:37:00,76.2,86.4,19.29,ENE,67,0.0,0.0,83,0.00,,,0.00,,2013-05-25 08:37:00,
2013-05-25 04:42:00,76.2,86.4,19.29,ENE,67,0.0,0.0,83,0.00,,,0.00,,2013-05-25 08:42:00,
2013-05-25 04:47:00,76.2,86.5,19.28,ENE,67,0.0,0.0,83,0.00,,,0.00,,2013-05-25 08:47:00,
2013-05-25 04:52:00,76.2,86.2,19.28,ESE,112,0.7,3.1,83,0.00,,,0.00,,2013-05-25 08:52:00,
2013-05-25 04:57:00,76.2,86.4,19.28,East,90,2.2,2.2,83,0.00,,,0.00,,2013-05-25 08:57:00,
2013-05-25 05:02:00,76.1,86.4,19.29,East,90,3.6,3.8,83,0.00,,,0.00,,2013-05-25 09:02:00,
2013-05-25 05:07:00,76.0,86.3,19.29,ENE,67,0.0,2.2,83,0.00,,,0.00,,2013-05-25 09:07:00,
2013-05-25 05:12:00,76.0,86.4,19.29,NNE,22,3.6,3.8,83,0.00,,,0.00,,2013-05-25 09:12:00,
2013-05-25 05:17:00,76.0,86.4,19.30,NNE,22,4.9,6.3,84,0.00,,,0.00,,2013-05-25 09:17:00,
2013-05-25 05:22:00,75.8,86.3,19.30,NE,45,6.5,8.3,84,0.00,,,0.00,,2013-05-25 09:22:00,
2013-05-25 05:27:00,75.6,86.0,19.30,ENE,67,11.4,17.4,84,0.00,,,0.00,,2013-05-25 09:27:00,
2013-05-25 05:32:00,75.7,86.0,19.30,NNE,22,8.3,10.3,83,0.00,,,0.00,,2013-05-25 09:32:00,
2013-05-25 05:37:00,75.7,86.2,19.30,East,90,6.3,10.5,82,0.00,,,0.00,,2013-05-25 09:37:00,
2013-05-25 05:42:00,75.7,86.1,19.30,NNE,22,9.2,10.7,80,0.00,,,0.00,,2013-05-25 09:42:00,
2013-05-25 05:47:00,75.7,86.0,19.31,ENE,67,10.7,11.0,80,0.00,,,0.00,,2013-05-25 09:47:00,
2013-05-25 05:52:00,75.7,85.9,19.31,NE,45,5.4,8.3,79,0.00,,,0.00,,2013-05-25 09:52:00,
2013-05-25 05:57:00,75.8,86.0,19.31,NE,45,6.0,8.7,79,0.00,,,0.00,,2013-05-25 09:57:00,
2013-05-25 06:02:00,75.8,85.9,19.31,NNE,22,4.7,6.9,79,0.00,,,0.00,,2013-05-25 10:02:00,
2013-05-25 06:07:00,75.8,86.1,19.31,NE,45,8.3,11.0,79,0.00,,,0.00,,2013-05-25 10:07:00,
2013-05-25 06:12:00,75.8,86.1,19.31,NE,45,3.1,4.7,80,0.00,,,0.00,,2013-05-25 10:12:00,
2013-05-25 06:17:00,75.8,86.1,19.31,ENE,67,3.4,6.7,80,0.00,,,0.00,,2013-05-25 10:17:00,
2013-05-25 06:22:00,75.8,86.0,19.31,NE,45,5.4,5.4,79,0.00,,,0.00,,2013-05-25 10:22:00,
2013-05-25 06:27:00,75.8,86.0,19.31,NE,45,5.8,8.3,79,0.00,,,0.00,,2013-05-25 10:27:00,
2013-05-25 06:32:00,75.9,85.8,19.31,East,90,6.3,6.5,78,0.00,,,0.00,,2013-05-25 10:32:00,
2013-05-25 06:37:00,75.9,85.9,19.31,ENE,67,5.6,7.6,78,0.00,,,0.00,,2013-05-25 10:37:00,
2013-05-25 06:42:00,75.9,86.0,19.31,ENE,67,2.9,2.9,78,0.00,,,0.00,,2013-05-25 10:42:00,
2013-05-25 06:47:00,76.0,85.9,19.31,East,90,6.9,8.9,77,0.00,,,0.00,,2013-05-25 10:47:00,
2013-05-25 06:52:00,76.1,85.7,19.31,ENE,67,5.4,5.4,77,0.00,,,0.00,,2013-05-25 10:52:00,
2013-05-25 06:57:00,76.2,85.8,19.31,ENE,67,4.9,11.2,77,0.00,,,0.00,,2013-05-25 10:57:00,
2013-05-25 07:02:00,76.4,85.6,19.31,East,90,6.3,6.3,76,0.00,,,0.00,,2013-05-25 11:02:00,
2013-05-25 07:07:00,76.7,85.9,19.31,SE,135,8.7,11.6,74,0.00,,,0.00,,2013-05-25 11:07:00,
2013-05-25 07:12:00,77.5,85.9,19.31,ESE,112,9.4,10.3,72,0.00,,,0.00,,2013-05-25 11:12:00,
2013-05-25 07:17:00,78.4,85.8,19.30,East,90,1.3,5.6,72,0.00,,,0.00,,2013-05-25 11:17:00,
2013-05-25 07:22:00,79.1,85.3,19.30,ENE,67,4.5,7.6,69,0.00,,,0.00,,2013-05-25 11:22:00,
2013-05-25 07:27:00,79.8,85.2,19.29,ENE,67,3.6,6.3,69,0.00,,,0.00,,2013-05-25 11:27:00,
2013-05-25 07:32:00,80.3,85.2,19.29,East,90,6.0,8.3,67,0.00,,,0.00,,2013-05-25 11:32:00,
2013-05-25 07:38:00,80.6,85.3,19.29,NNE,22,7.2,10.5,65,0.00,,,0.00,,2013-05-25 11:38:00,
2013-05-25 07:43:00,80.5,85.8,19.28,NNE,22,7.2,10.5,63,0.00,,,0.00,,2013-05-25 11:43:00,
2013-05-25 07:48:00,80.4,85.3,19.28,ENE,67,3.4,8.7,62,0.00,,,0.00,,2013-05-25 11:48:00,
2013-05-25 07:53:00,80.3,85.5,19.27,ENE,67,8.3,13.0,59,0.00,,,0.00,,2013-05-25 11:53:00,
2013-05-25 07:58:00,80.2,85.8,19.26,NNE,22,7.6,11.0,57,0.00,,,0.00,,2013-05-25 11:58:00,
2013-05-25 08:03:00,80.3,85.2,19.26,ENE,67,8.7,13.4,57,0.00,,,0.00,,2013-05-25 12:03:00,
2013-05-25 08:08:00,80.2,85.2,19.25,NE,45,7.8,13.6,56,0.00,,,0.00,,2013-05-25 12:08:00,
2013-05-25 08:13:00,80.3,85.4,19.25,NNE,22,11.6,12.5,56,0.00,,,0.00,,2013-05-25 12:13:00,
2013-05-25 08:18:00,80.3,85.5,19.25,NNE,22,12.3,12.3,56,0.00,,,0.00,,2013-05-25 12:18:00,
2013-05-25 08:23:00,80.3,85.6,19.25,ENE,67,6.3,15.9,56,0.00,,,0.00,,2013-05-25 12:23:00,
2013-05-25 08:28:00,80.5,85.0,19.24,NE,45,9.6,9.6,56,0.00,,,0.00,,2013-05-25 12:28:00,
2013-05-25 08:33:00,80.7,85.4,19.23,NE,45,12.8,17.7,55,0.00,,,0.00,,2013-05-25 12:33:00,
2013-05-25 08:38:00,80.5,85.5,19.24,ENE,67,10.5,14.1,54,0.00,,,0.00,,2013-05-25 12:38:00,
2013-05-25 08:43:00,80.6,85.5,19.24,ENE,67,12.1,19.2,54,0.00,,,0.00,,2013-05-25 12:43:00,
2013-05-25 08:48:00,80.7,85.1,19.23,NE,45,6.3,11.9,54,0.00,,,0.00,,2013-05-25 12:48:00,
2013-05-25 08:53:00,80.8,85.5,19.23,ENE,67,5.8,15.2,54,0.00,,,0.00,,2013-05-25 12:53:00,
2013-05-25 08:58:00,81.0,85.2,19.23,ENE,67,16.6,18.6,53,0.00,,,0.00,,2013-05-25 12:58:00,
2013-05-25 09:03:00,81.0,85.6,19.22,ENE,67,8.3,11.9,53,0.00,,,0.00,,2013-05-25 13:03:00,
2013-05-25 09:08:00,81.2,85.6,19.22,NNE,22,10.1,10.1,54,0.00,,,0.00,,2013-05-25 13:08:00,
2013-05-25 09:13:00,81.4,85.8,19.21,East,90,5.1,14.5,53,0.00,,,0.00,,2013-05-25 13:13:00,
2013-05-25 09:18:00,81.5,85.5,19.20,NE,45,6.7,6.7,53,0.00,,,0.00,,2013-05-25 13:18:00,
2013-05-25 09:23:00,81.6,85.4,19.20,NNE,22,10.7,13.0,53,0.00,,,0.00,,2013-05-25 13:23:00,
2013-05-25 09:28:00,81.6,85.4,19.20,ENE,67,8.7,8.7,53,0.00,,,0.00,,2013-05-25 13:28:00,
2013-05-25 09:33:00,81.4,85.6,19.19,NE,45,10.3,16.6,52,0.00,,,0.00,,2013-05-25 13:33:00,
2013-05-25 09:38:00,81.2,85.6,19.20,ENE,67,10.1,10.1,51,0.00,,,0.00,,2013-05-25 13:38:00,
2013-05-25 09:43:00,81.2,85.4,19.20,ENE,67,15.2,15.4,51,0.00,,,0.00,,2013-05-25 13:43:00,
2013-05-25 09:48:00,81.3,85.4,19.21,NNE,22,15.9,15.9,51,0.00,,,0.00,,2013-05-25 13:48:00,
2013-05-25 09:53:00,81.1,85.5,19.20,East,90,8.5,15.0,52,0.00,,,0.00,,2013-05-25 13:53:00,
2013-05-25 09:58:00,81.2,85.9,19.20,East,90,13.0,19.9,53,0.00,,,0.00,,2013-05-25 13:58:00,
2013-05-25 10:03:00,81.4,85.7,19.20,ENE,67,4.7,13.6,52,0.00,,,0.00,,2013-05-25 14:03:00,
2013-05-25 10:08:00,81.5,85.5,19.20,ENE,67,10.5,19.7,53,0.00,,,0.00,,2013-05-25 14:08:00,
2013-05-25 10:13:00,81.6,85.5,19.20,East,90,18.3,19.5,51,0.00,,,0.00,,2013-05-25 14:13:00,
2013-05-25 10:18:00,81.5,85.7,19.20,North,0,4.0,15.7,52,0.00,,,0.00,,2013-05-25 14:18:00,
2013-05-25 10:23:00,81.6,86.0,19.20,NE,45,18.6,18.6,51,0.00,,,0.00,,2013-05-25 14:23:00,
2013-05-25 10:28:00,81.5,86.3,19.19,ENE,67,10.5,13.9,53,0.00,,,0.00,,2013-05-25 14:28:00,
2013-05-25 10:33:00,81.6,86.2,19.20,ENE,67,13.2,14.3,52,0.00,,,0.00,,2013-05-25 14:33:00,
2013-05-25 10:38:00,81.5,85.9,19.20,NE,45,16.8,22.6,52,0.00,,,0.00,,2013-05-25 14:38:00,
2013-05-25 10:43:00,81.2,86.1,19.21,NE,45,11.6,15.4,52,0.00,,,0.00,,2013-05-25 14:43:00,
2013-05-25 10:48:00,81.0,86.2,19.20,NNE,22,16.1,20.6,54,0.00,,,0.00,,2013-05-25 14:48:00,
2013-05-25 10:53:00,81.2,85.9,19.20,ENE,67,9.6,10.7,55,0.00,,,0.00,,2013-05-25 14:53:00,
2013-05-25 10:58:00,81.2,86.1,19.20,East,90,10.7,19.7,54,0.00,,,0.00,,2013-05-25 14:58:00,
2013-05-25 11:03:00,81.2,86.4,19.21,ENE,67,9.8,19.9,53,0.00,,,0.00,,2013-05-25 15:03:00,
2013-05-25 11:08:00,81.1,86.5,19.21,ESE,112,13.6,22.1,54,0.00,,,0.00,,2013-05-25 15:08:00,
2013-05-25 11:13:00,81.2,86.4,19.21,NNE,22,14.1,17.0,54,0.00,,,0.00,,2013-05-25 15:13:00,
2013-05-25 11:18:00,81.2,85.9,30.13,NE,45,16.1,26.4,52,0.00,,,0.00,,2013-05-25 15:18:00,
2013-05-25 11:23:00,81.1,86.2,30.14,NNE,22,11.4,18.8,52,0.00,,,0.00,,2013-05-25 15:23:00,
2013-05-25 11:28:00,81.2,85.9,30.14,ENE,67,15.2,23.9,53,0.00,,,0.00,,2013-05-25 15:28:00,
2013-05-25 11:33:00,81.5,86.3,30.15,ENE,67,8.9,14.8,54,0.00,,,0.00,,2013-05-25 15:33:00,
2013-05-25 11:38:00,81.5,86.4,30.15,East,90,18.1,19.2,52,0.00,,,0.00,,2013-05-25 15:38:00,
2013-05-25 11:43:00,81.5,86.6,30.15,NE,45,19.7,22.1,51,0.00,,,0.00,,2013-05-25 15:43:00,
2013-05-25 11:48:00,81.3,86.2,30.15,NE,45,5.4,16.6,52,0.00,,,0.00,,2013-05-25 15:48:00,
2013-05-25 11:53:00,81.5,86.1,30.15,NE,45,6.9,11.4,52,0.00,,,0.00,,2013-05-25 15:53:00,
2013-05-25 11:58:00,81.2,86.3,30.15,ENE,67,7.4,15.9,53,0.00,,,0.00,,2013-05-25 15:58:00,
2013-05-25 12:03:00,81.3,86.4,30.15,ENE,67,9.8,13.2,52,0.00,,,0.00,,2013-05-25 16:03:00,
2013-05-25 12:08:00,81.2,86.5,30.15,ENE,67,14.5,22.1,50,0.00,,,0.00,,2013-05-25 16:08:00,
2013-05-25 12:13:00,81.4,86.3,30.15,NE,45,5.6,8.5,53,0.00,,,0.00,,2013-05-25 16:13:00,
2013-05-25 12:18:00,81.6,86.4,30.15,NE,45,9.2,14.3,54,0.00,,,0.00,,2013-05-25 16:18:00,
2013-05-25 12:24:00,81.8,86.8,30.16,East,90,10.1,11.4,54,0.00,,,0.00,,2013-05-25 16:24:00,
2013-05-25 12:29:00,81.8,86.4,30.15,NNE,22,10.3,19.0,53,0.00,,,0.00,,2013-05-25 16:29:00,
2013-05-25 12:34:00,81.6,86.4,30.15,ENE,67,13.9,13.9,53,0.00,,,0.00,,2013-05-25 16:34:00,
2013-05-25 12:39:00,81.8,86.6,30.15,ENE,67,9.6,16.1,53,0.00,,,0.00,,2013-05-25 16:39:00,
2013-05-25 12:44:00,81.8,86.7,30.15,ENE,67,4.7,17.4,53,0.00,,,0.00,,2013-05-25 16:44:00,
2013-05-25 12:49:00,81.8,86.5,30.15,ENE,67,11.0,13.6,54,0.00,,,0.00,,2013-05-25 16:49:00,
2013-05-25 12:54:00,81.8,87.0,30.15,NE,45,11.9,16.1,53,0.00,,,0.00,,2013-05-25 16:54:00,
2013-05-25 12:59:00,82.0,86.6,30.15,ENE,67,13.9,14.8,53,0.00,,,0.00,,2013-05-25 16:59:00,
2013-05-25 13:04:00,82.1,86.7,30.15,ESE,112,4.3,13.9,53,0.00,,,0.00,,2013-05-25 17:04:00,
2013-05-25 13:09:00,82.1,86.9,30.15,NNE,22,15.9,15.9,52,0.00,,,0.00,,2013-05-25 17:09:00,
2013-05-25 13:14:00,82.0,86.9,30.15,East,90,14.5,17.0,51,0.00,,,0.00,,2013-05-25 17:14:00,
2013-05-25 13:19:00,81.5,87.3,30.15,NE,45,11.0,13.9,53,0.00,,,0.00,,2013-05-25 17:19:00,
2013-05-25 13:24:00,81.6,87.0,30.15,NE,45,12.3,17.7,53,0.00,,,0.00,,2013-05-25 17:24:00,
2013-05-25 13:29:00,81.6,86.8,30.15,ESE,112,11.9,18.6,52,0.00,,,0.00,,2013-05-25 17:29:00,
2013-05-25 13:34:00,81.6,87.2,30.15,NNE,22,10.5,20.8,52,0.00,,,0.00,,2013-05-25 17:34:00,
2013-05-25 13:39:00,81.8,87.0,30.15,ENE,67,4.0,8.1,54,0.00,,,0.00,,2013-05-25 17:39:00,
2013-05-25 13:44:00,81.8,86.7,30.15,East,90,9.6,12.1,53,0.00,,,0.00,,2013-05-25 17:44:00,
2013-05-25 13:49:00,81.9,86.7,30.15,NE,45,8.5,11.2,55,0.00,,,0.00,,2013-05-25 17:49:00,
2013-05-25 13:54:00,82.1,87.2,30.15,NE,45,8.1,14.8,55,0.00,,,0.00,,2013-05-25 17:54:00,
2013-05-25 13:59:00,82.1,87.0,30.14,ENE,67,18.1,18.1,53,0.00,,,0.00,,2013-05-25 17:59:00,
2013-05-25 14:04:00,82.0,87.0,30.14,ENE,67,11.2,16.3,53,0.00,,,0.00,,2013-05-25 18:04:00,
2013-05-25 14:09:00,82.1,87.6,30.14,ENE,67,16.8,17.9,55,0.00,,,0.00,,2013-05-25 18:09:00,
2013-05-25 14:14:00,81.8,87.8,30.14,NE,45,14.8,15.4,53,0.00,,,0.00,,2013-05-25 18:14:00,
2013-05-25 14:19:00,81.6,87.4,30.14,NE,45,12.1,14.8,53,0.00,,,0.00,,2013-05-25 18:19:00,
2013-05-25 14:24:00,81.5,86.9,30.13,ENE,67,6.0,15.9,54,0.00,,,0.00,,2013-05-25 18:24:00,
2013-05-25 14:29:00,81.8,87.2,30.13,NNE,22,11.9,13.6,51,0.00,,,0.00,,2013-05-25 18:29:00,
2013-05-25 14:34:00,81.8,87.4,30.13,ENE,67,14.1,19.5,51,0.00,,,0.00,,2013-05-25 18:34:00,
2013-05-25 14:39:00,81.8,87.1,30.13,East,90,10.5,13.9,52,0.00,,,0.00,,2013-05-25 18:39:00,
2013-05-25 14:44:00,81.8,87.6,30.13,ENE,67,13.9,18.6,51,0.00,,,0.00,,2013-05-25 18:44:00,
2013-05-25 14:49:00,81.7,87.5,30.13,NE,45,11.0,11.2,49,0.00,,,0.00,,2013-05-25 18:49:00,
2013-05-25 14:54:00,81.8,87.5,30.13,East,90,8.7,14.1,51,0.00,,,0.00,,2013-05-25 18:54:00,
2013-05-25 14:59:00,81.8,87.6,30.13,NNE,22,13.4,13.4,51,0.00,,,0.00,,2013-05-25 18:59:00,
2013-05-25 15:04:00,81.8,87.5,30.13,ENE,67,16.3,16.3,52,0.00,,,0.00,,2013-05-25 19:04:00,
2013-05-25 15:09:00,81.8,87.7,30.13,ESE,112,6.3,17.0,52,0.00,,,0.00,,2013-05-25 19:09:00,
2013-05-25 15:14:00,81.7,87.4,30.13,NNE,22,8.3,10.5,50,0.00,,,0.00,,2013-05-25 19:14:00,
2013-05-25 15:19:00,81.6,87.6,30.13,ENE,67,17.7,19.7,50,0.00,,,0.00,,2013-05-25 19:19:00,
2013-05-25 15:24:00,81.3,87.2,30.13,ENE,67,17.2,18.3,52,0.00,,,0.00,,2013-05-25 19:24:00,
2013-05-25 15:29:00,81.2,87.2,30.13,NE,45,17.7,18.8,52,0.00,,,0.00,,2013-05-25 19:29:00,
2013-05-25 15:34:00,81.1,87.6,30.13,East,90,13.6,15.4,51,0.00,,,0.00,,2013-05-25 19:34:00,
2013-05-25 15:39:00,81.3,87.6,30.13,NNE,22,16.3,18.8,51,0.00,,,0.00,,2013-05-25 19:39:00,
2013-05-25 15:44:00,81.1,87.7,30.12,NE,45,9.4,13.6,52,0.00,,,0.00,,2013-05-25 19:44:00,
2013-05-25 15:49:00,81.1,87.2,30.12,NE,45,9.6,20.8,53,0.00,,,0.00,,2013-05-25 19:49:00,
2013-05-25 15:54:00,81.1,87.1,30.12,ENE,67,10.3,15.0,53,0.00,,,0.00,,2013-05-25 19:54:00,
2013-05-25 15:59:00,81.3,87.0,30.12,NE,45,12.1,19.5,53,0.00,,,0.00,,2013-05-25 19:59:00,
2013-05-25 16:04:00,81.2,87.0,30.12,NNE,22,13.9,19.7,52,0.00,,,0.00,,2013-05-25 20:04:00,
2013-05-25 16:09:00,81.0,87.3,30.12,ENE,67,9.4,22.4,52,0.00,,,0.00,,2013-05-25 20:09:00,
2013-05-25 16:14:00,81.0,87.2,30.12,ENE,67,8.3,8.3,53,0.00,,,0.00,,2013-05-25 20:14:00,
2013-05-25 16:19:00,80.7,87.3,30.12,NE,45,14.5,15.9,52,0.00,,,0.00,,2013-05-25 20:19:00,
2013-05-25 16:24:00,80.7,87.3,30.12,ENE,67,4.0,4.0,53,0.00,,,0.00,,2013-05-25 20:24:00,
2013-05-25 16:29:00,80.8,87.4,30.12,NE,45,10.3,11.0,53,0.00,,,0.00,,2013-05-25 20:29:00,
2013-05-25 16:34:00,81.2,87.2,30.11,NE,45,11.0,21.9,53,0.00,,,0.00,,2013-05-25 20:34:00,
2013-05-25 16:39:00,80.9,86.7,30.11,ENE,67,15.7,17.7,52,0.00,,,0.00,,2013-05-25 20:39:00,
2013-05-25 16:44:00,80.9,87.1,30.11,East,90,6.3,15.7,52,0.00,,,0.00,,2013-05-25 20:44:00,
2013-05-25 16:49:00,80.9,87.0,30.11,East,90,9.4,14.1,53,0.00,,,0.00,,2013-05-25 20:49:00,
2013-05-25 16:54:00,81.2,86.7,30.11,East,90,8.3,15.0,53,0.00,,,0.00,,2013-05-25 20:54:00,
2013-05-25 16:59:00,81.1,87.2,30.11,ENE,67,12.5,12.5,53,0.00,,,0.00,,2013-05-25 20:59:00,
2013-05-25 17:04:00,80.9,86.7,30.11,East,90,11.2,16.6,52,0.00,,,0.00,,2013-05-25 21:04:00,
2013-05-25 17:09:00,80.8,87.0,30.11,East,90,3.1,12.5,53,0.00,,,0.00,,2013-05-25 21:09:00,
2013-05-25 17:14:00,80.7,86.8,30.11,NNE,22,17.2,19.2,54,0.00,,,0.00,,2013-05-25 21:14:00,
2013-05-25 17:19:00,80.8,87.1,30.11,NE,45,14.5,17.4,55,0.00,,,0.00,,2013-05-25 21:19:00,
2013-05-25 17:24:00,80.8,86.8,30.11,NE,45,10.5,17.9,57,0.00,,,0.00,,2013-05-25 21:24:00,
2013-05-25 17:29:00,80.4,86.6,30.11,NE,45,10.7,12.5,58,0.00,,,0.00,,2013-05-25 21:29:00,
2013-05-25 17:35:00,80.3,86.6,30.11,ENE,67,8.5,15.7,59,0.00,,,0.00,,2013-05-25 21:35:00,
2013-05-25 17:40:00,80.1,86.4,30.11,East,90,20.4,21.7,60,0.00,,,0.00,,2013-05-25 21:40:00,
2013-05-25 17:45:00,79.9,86.3,30.10,NE,45,5.4,15.2,61,0.00,,,0.00,,2013-05-25 21:45:00,
2013-05-25 17:50:00,80.1,86.8,30.10,East,90,12.5,12.5,58,0.00,,,0.00,,2013-05-25 21:50:00,
2013-05-25 17:55:00,80.1,86.6,30.10,ENE,67,10.7,13.9,59,0.00,,,0.00,,2013-05-25 21:55:00,
2013-05-25 18:00:00,79.8,86.5,30.10,NE,45,15.7,17.4,58,0.00,,,0.00,,2013-05-25 22:00:00,
2013-05-25 18:05:00,79.7,86.4,30.10,ENE,67,16.1,20.1,56,0.00,,,0.00,,2013-05-25 22:05:00,
2013-05-25 18:10:00,79.6,86.5,30.11,NE,45,19.5,19.5,57,0.00,,,0.00,,2013-05-25 22:10:00,
2013-05-25 18:15:00,79.7,86.6,30.10,NNE,22,14.1,15.4,59,0.00,,,0.00,,2013-05-25 22:15:00,
2013-05-25 18:20:00,79.7,86.6,30.10,East,90,13.6,19.0,58,0.00,,,0.00,,2013-05-25 22:20:00,
2013-05-25 18:25:00,79.7,86.7,30.11,East,90,9.6,11.0,58,0.00,,,0.00,,2013-05-25 22:25:00,
2013-05-25 18:30:00,79.7,86.4,30.10,East,90,9.2,21.0,59,0.00,,,0.00,,2013-05-25 22:30:00,
2013-05-25 18:35:00,79.7,86.5,30.10,North,0,19.9,22.8,57,0.00,,,0.00,,2013-05-25 22:35:00,
2013-05-25 18:40:00,79.5,86.3,30.10,ENE,67,10.7,18.8,56,0.00,,,0.00,,2013-05-25 22:40:00,
2013-05-25 18:45:00,79.4,86.2,30.11,East,90,8.3,12.1,58,0.00,,,0.00,,2013-05-25 22:45:00,
2013-05-25 18:50:00,79.1,86.1,30.11,NNE,22,14.8,15.4,59,0.00,,,0.00,,2013-05-25 22:50:00,
2013-05-25 18:55:00,79.1,86.3,30.11,NE,45,14.8,20.1,59,0.00,,,0.00,,2013-05-25 22:55:00,
2013-05-25 19:00:00,79.1,86.2,30.11,NE,45,9.2,10.3,59,0.00,,,0.00,,2013-05-25 23:00:00,
2013-05-25 19:05:00,78.9,86.4,30.11,ENE,67,16.8,17.0,59,0.00,,,0.00,,2013-05-25 23:05:00,
2013-05-25 19:10:00,78.8,86.7,30.11,ENE,67,12.8,12.8,61,0.00,,,0.00,,2013-05-25 23:10:00,
2013-05-25 19:15:00,78.8,86.3,30.11,ENE,67,15.7,16.6,61,0.00,,,0.00,,2013-05-25 23:15:00,
2013-05-25 19:20:00,78.9,86.2,30.11,ENE,67,8.3,19.0,61,0.00,,,0.00,,2013-05-25 23:20:00,
2013-05-25 19:25:00,78.9,86.3,30.11,NE,45,6.0,7.6,61,0.00,,,0.00,,2013-05-25 23:25:00,
2013-05-25 19:30:00,79.1,86.3,30.11,East,90,13.2,14.8,61,0.00,,,0.00,,2013-05-25 23:30:00,
2013-05-25 19:35:00,79.1,86.3,30.11,ENE,67,9.8,9.8,61,0.00,,,0.00,,2013-05-25 23:35:00,
2013-05-25 19:40:00,79.0,86.7,30.11,ENE,67,5.4,10.3,61,0.00,,,0.00,,2013-05-25 23:40:00,
2013-05-25 19:45:00,78.7,86.3,30.11,NE,45,4.3,8.7,61,0.00,,,0.00,,2013-05-25 23:45:00,
2013-05-25 19:50:00,78.3,86.5,30.11,NE,45,14.1,19.0,61,0.00,,,0.00,,2013-05-25 23:50:00,
2013-05-25 19:55:00,77.9,86.2,30.11,NE,45,11.2,16.3,62,0.00,,,0.00,,2013-05-25 23:55:00,
2013-05-25 20:00:00,77.7,86.3,30.11,NE,45,6.7,10.3,63,0.00,,,0.00,,2013-05-26 00:00:00,
2013-05-25 20:05:00,77.5,86.5,30.11,NE,45,14.3,14.8,61,0.00,,,0.00,,2013-05-26 00:05:00,
2013-05-25 20:10:00,77.3,86.2,30.11,NE,45,13.0,16.8,62,0.00,,,0.00,,2013-05-26 00:10:00,
2013-05-25 20:15:00,77.1,86.2,30.11,NNE,22,12.5,16.6,62,0.00,,,0.00,,2013-05-26 00:15:00,
2013-05-25 20:20:00,77.0,86.2,30.12,ENE,67,15.4,17.0,63,0.00,,,0.00,,2013-05-26 00:20:00,
2013-05-25 20:25:00,76.9,86.3,30.12,NE,45,6.7,8.1,64,0.00,,,0.00,,2013-05-26 00:25:00,
2013-05-25 20:30:00,76.9,86.4,30.12,NE,45,6.7,9.8,65,0.00,,,0.00,,2013-05-26 00:30:00,
2013-05-25 20:35:00,76.8,86.3,30.12,NNE,22,6.7,6.7,65,0.00,,,0.00,,2013-05-26 00:35:00,
2013-05-25 20:40:00,76.8,86.3,30.12,ENE,67,7.6,14.3,65,0.00,,,0.00,,2013-05-26 00:40:00,
2013-05-25 20:45:00,76.7,86.2,30.12,ENE,67,6.7,18.6,66,0.00,,,0.00,,2013-05-26 00:45:00,
2013-05-25 20:50:00,76.7,86.0,30.13,ENE,67,8.5,11.9,65,0.00,,,0.00,,2013-05-26 00:50:00,
2013-05-25 20:55:00,76.6,86.2,30.13,NE,45,10.5,13.0,64,0.00,,,0.00,,2013-05-26 00:55:00,
2013-05-25 21:00:00,76.6,86.0,30.13,ENE,67,8.1,8.7,64,0.00,,,0.00,,2013-05-26 01:00:00,
2013-05-25 21:05:00,76.5,86.2,30.13,ENE,67,8.3,13.0,65,0.00,,,0.00,,2013-05-26 01:05:00,
2013-05-25 21:10:00,76.4,86.0,30.13,NE,45,10.3,11.0,65,0.00,,,0.00,,2013-05-26 01:10:00,
2013-05-25 21:15:00,76.3,86.1,30.13,NE,45,6.3,16.1,65,0.00,,,0.00,,2013-05-26 01:15:00,
2013-05-25 21:20:00,76.3,86.1,30.13,NE,45,10.1,12.5,65,0.00,,,0.00,,2013-05-26 01:20:00,
2013-05-25 21:25:00,76.3,86.1,30.13,NE,45,6.0,8.1,65,0.00,,,0.00,,2013-05-26 01:25:00,
2013-05-25 21:30:00,76.3,86.2,30.14,ENE,67,5.1,7.4,65,0.00,,,0.00,,2013-05-26 01:30:00,
2013-05-25 21:35:00,76.2,86.1,30.13,ENE,67,8.3,11.6,65,0.00,,,0.00,,2013-05-26 01:35:00,
2013-05-25 21:40:00,76.2,86.0,30.13,ENE,67,13.4,17.2,64,0.00,,,0.00,,2013-05-26 01:40:00,
2013-05-25 21:45:00,76.1,86.1,30.14,NE,45,7.8,11.0,64,0.00,,,0.00,,2013-05-26 01:45:00,
2013-05-25 21:50:00,76.0,86.2,30.14,NE,45,6.0,13.0,63,0.00,,,0.00,,2013-05-26 01:50:00,
2013-05-25 21:55:00,76.0,86.0,30.14,ENE,67,9.6,10.7,63,0.00,,,0.00,,2013-05-26 01:55:00,
2013-05-25 22:00:00,76.0,85.7,30.14,ENE,67,11.2,11.2,63,0.00,,,0.00,,2013-05-26 02:00:00,
2013-05-25 22:05:00,75.9,85.9,30.14,NNE,22,5.8,11.4,63,0.00,,,0.00,,2013-05-26 02:05:00,
2013-05-25 22:10:00,75.9,85.9,30.14,ENE,67,9.6,14.1,63,0.00,,,0.00,,2013-05-26 02:10:00,
2013-05-25 22:15:00,75.8,86.0,30.14,NNE,22,3.1,10.7,62,0.00,,,0.00,,2013-05-26 02:15:00,
2013-05-25 22:20:00,75.8,86.0,30.14,East,90,4.5,5.1,62,0.00,,,0.00,,2013-05-26 02:20:00,
2013-05-25 22:25:00,75.8,85.9,30.14,East,90,7.2,13.2,62,0.00,,,0.00,,2013-05-26 02:25:00,
2013-05-25 22:30:00,75.8,85.8,30.15,ENE,67,5.1,6.0,63,0.00,,,0.00,,2013-05-26 02:30:00,
2013-05-25 22:35:00,75.8,85.9,30.15,NE,45,2.5,6.9,63,0.00,,,0.00,,2013-05-26 02:35:00,
2013-05-25 22:40:00,75.7,85.8,30.15,ENE,67,8.7,9.2,62,0.00,,,0.00,,2013-05-26 02:40:00,
2013-05-25 22:45:00,75.7,85.9,30.15,ESE,112,3.8,9.2,62,0.00,,,0.00,,2013-05-26 02:45:00,
2013-05-25 22:50:00,75.7,85.8,30.15,ENE,67,2.9,2.9,62,0.00,,,0.00,,2013-05-26 02:50:00,
2013-05-25 22:55:00,75.6,85.9,30.16,ENE,67,5.8,7.8,63,0.00,,,0.00,,2013-05-26 02:55:00,
2013-05-25 23:01:00,75.7,85.8,30.16,ENE,67,3.1,10.5,64,0.00,,,0.00,,2013-05-26 03:01:00,
2013-05-25 23:06:00,75.6,85.8,30.16,ENE,67,3.8,6.0,63,0.00,,,0.00,,2013-05-26 03:06:00,
2013-05-25 23:11:00,75.6,85.9,30.16,NE,45,3.4,5.6,63,0.00,,,0.00,,2013-05-26 03:11:00,
2013-05-25 23:16:00,75.6,85.9,30.16,NNE,22,5.6,7.2,64,0.00,,,0.00,,2013-05-26 03:16:00,
2013-05-25 23:21:00,75.5,85.8,30.16,NE,45,8.5,16.1,64,0.00,,,0.00,,2013-05-26 03:21:00,
2013-05-25 23:26:00,75.5,86.0,30.16,ENE,67,8.1,8.5,64,0.00,,,0.00,,2013-05-26 03:26:00,
2013-05-25 23:30:00,75.5,85.8,30.16,NE,45,4.5,7.4,64,0.00,,,0.00,,2013-05-26 03:30:00,
2013-05-25 23:35:00,75.5,86.0,30.16,NNE,22,3.1,4.7,64,0.00,,,0.00,,2013-05-26 03:35:00,
2013-05-25 23:40:00,75.5,85.8,30.16,ENE,67,3.6,4.7,64,0.00,,,0.00,,2013-05-26 03:40:00,
2013-05-25 23:45:00,75.5,85.9,30.16,ENE,67,4.7,4.7,63,0.00,,,0.00,,2013-05-26 03:45:00,
2013-05-25 23:50:00,75.4,85.7,30.15,ENE,67,7.4,9.6,63,0.00,,,0.00,,2013-05-26 03:50:00,
2013-05-25 23:55:00,75.4,85.9,30.15,ENE,67,6.7,6.7,63,0.00,,,0.00,,2013-05-26 03:55:00,